Other Public Products
Issued by NWS Charleston, SC

Home | Current Version | Previous Version | Text Only | Print | Product List | Glossary On
Versions: 1 2 3 4 5 6 7 8 9 10 11 12 13 14 15 16 17 18 19 20 21 22 23 24 25 26 27 28 29 30 31 32 33 34 35 36 37 38 39 40 41 42 43 44 45 46 47 48 49 50
000
FPUS82 KCHS 260627
OPUCHS

TEST...KCHS/KSAV Gateway Observations...TEST
National Weather Service Charleston SC
200 AM EDT WED APR 26 2017

NOTE: "fair" indicates few or no clouds below 12,000 feet with no
significant weather and/or obstructions to visibility.

SCZ050-WAZ558-NCZ071-TXZ119-213-PAZ071-DCZ001-FLZ074-172-MI076-
NYZ176-178-MAZ016-IL014-TNZ027-NJZ106-GAZ044-MD014-260700-

...Gateway Observations for Charleston International...

CITY           SKY/WX    TMP DP  RH WIND       PRES   REMARKS
Chas Airport   CLEAR     64  60  87 CALM      29.79F
6HR MIN TEMP:  63; 6HR MAX TEMP:  72;

Seattle        CLOUDY    50  47  89 S9        29.77S
6HR MIN TEMP:  49; 6HR MAX TEMP:  55; 6HR PCP:  0.02;

Charlotte      CLOUDY    62  57  83 S5        29.79S
6HR MIN TEMP:  62; 6HR MAX TEMP:  67;

Dallas DFW     MOCLDY    76  69  79 S22G30    29.40F
6HR MIN TEMP:  76; 6HR MAX TEMP:  83;

Dallas Love    CLOUDY    76  67  73 S23       29.43F
6HR MIN TEMP:  76; 6HR MAX TEMP:  84;

Philladelphia  CLOUDY    56  54  93 NE13G21   29.71F
6HR MIN TEMP:  56; 6HR MAX TEMP:  56; 6HR PCP:  0.16;

Wash National  CLOUDY    59  58  96 N10       29.71F
6HR MIN TEMP:  58; 6HR MAX TEMP:  60; 6HR PCP:  0.01;

Baltimore      LGT RAIN  57  57 100 N5        29.71F
6HR MIN TEMP:  56; 6HR MAX TEMP:  58; 6HR PCP:  0.10;

Miami          CLEAR     70  59  68 W5        29.89S
6HR MIN TEMP:  69; 6HR MAX TEMP:  78;

Detroit        MOCLDY    55  51  86 E5        29.74S
6HR MIN TEMP:  55; 6HR MAX TEMP:  64;

Newark         LGT RAIN  54  54 100 NE13      29.79F
6HR MIN TEMP:  53; 6HR MAX TEMP:  54; 6HR PCP:  0.54;

Laguardia      CLOUDY    53  51  93 NE21      29.80S FOG
6HR MIN TEMP:  52; 6HR MAX TEMP:  53; 6HR PCP:  0.36;

J F K          CLOUDY    55  54  96 N7        29.80S
6HR MIN TEMP:  53; 6HR MAX TEMP:  59; 6HR PCP:  0.33;

Boston Logan   LGT RAIN  48  48 100 NE12      30.00  FOG
6HR MIN TEMP:  47; 6HR MAX TEMP:  48; 6HR PCP:  0.35;

Ft. Lauderdale CLEAR     69  60  73 W6        29.88S
6HR MIN TEMP:  69; 6HR MAX TEMP:  78;

Chicago O`Hare CLOUDY    68  53  58 S10       29.53F
6HR MIN TEMP:  66; 6HR MAX TEMP:  76;

Chicago Midway CLOUDY    69  54  58 S10       29.55F
6HR MIN TEMP:  69; 6HR MAX TEMP:  78;

Houston Bush   CLOUDY    77  70  79 S9        29.59R
6HR MIN TEMP:  77; 6HR MAX TEMP:  79; 6HR PCP: TRACE;

Houston Hobby  CLOUDY    76  71  85 S12       29.59R
6HR MIN TEMP:  76; 6HR MAX TEMP:  77; 6HR PCP: TRACE;

Nashville      CLEAR     61  55  81 S5        29.68F
6HR MIN TEMP:  59; 6HR MAX TEMP:  73;

Atlanta        CLEAR     61  57  87 SW6       29.78F
6HR MIN TEMP:  61; 6HR MAX TEMP:  73;


$$

GAZ044-118-TXZ119-213-NCZ071-DCZ001-MDZ014-506-PAZ021-071-NJZ106-
NYZ176-178-MAZ106-OHZ011-021-055-MIZ076-KYZ091-ILZ014-INZ047-
MNZ060-ONZ431-260700-

...Gateway Observations for Savannah International...

CITY           SKY/WX    TMP DP  RH WIND       PRES   REMARKS
Savannah Arpt  CLEAR     64  60  87 CALM      29.79F
6HR MIN TEMP:  64; 6HR MAX TEMP:  77;

Atlanta        CLEAR     61  57  87 SW6       29.78F
6HR MIN TEMP:  61; 6HR MAX TEMP:  73;

Charlotte      CLOUDY    62  57  83 S5        29.79S
6HR MIN TEMP:  62; 6HR MAX TEMP:  67;

Dallas DFW     MOCLDY    76  69  79 S22G30    29.40F
6HR MIN TEMP:  76; 6HR MAX TEMP:  83;

Houston Bush   CLOUDY    77  70  79 S9        29.59R
6HR MIN TEMP:  77; 6HR MAX TEMP:  79; 6HR PCP: TRACE;

Wash National  CLOUDY    59  58  96 N10       29.71F
6HR MIN TEMP:  58; 6HR MAX TEMP:  60; 6HR PCP:  0.01;

Wash Dulles    DRIZZLE   57  55  93 N9        29.73F FOG
6HR MIN TEMP:  57; 6HR MAX TEMP:  59; 6HR PCP:  0.01;

Baltimore      LGT RAIN  57  57 100 N5        29.71F
6HR MIN TEMP:  56; 6HR MAX TEMP:  58; 6HR PCP:  0.10;

Philadelphia   CLOUDY    56  54  93 NE13G21   29.71F
6HR MIN TEMP:  56; 6HR MAX TEMP:  56; 6HR PCP:  0.16;

Newark         LGT RAIN  54  54 100 NE13      29.79F
6HR MIN TEMP:  53; 6HR MAX TEMP:  54; 6HR PCP:  0.54;

Laguardia      CLOUDY    53  51  93 NE21      29.80S FOG
6HR MIN TEMP:  52; 6HR MAX TEMP:  53; 6HR PCP:  0.36;

J F K          CLOUDY    55  54  96 N7        29.80S
6HR MIN TEMP:  53; 6HR MAX TEMP:  59; 6HR PCP:  0.33;

Boston         LGT RAIN  48  48 100 NE12      30.00  FOG
6HR MIN TEMP:  47; 6HR MAX TEMP:  48; 6HR PCP:  0.35;

Pittsburg      CLOUDY    54  54 100 CALM      29.78R
6HR MIN TEMP:  52; 6HR MAX TEMP:  59;

Akron          CLEAR     56  51  84 E8        29.78S
6HR MIN TEMP:  56; 6HR MAX TEMP:  66;

Cleveland      PTCLDY    59  51  75 S7        29.77S
6HR MIN TEMP:  59; 6HR MAX TEMP:  69;

Cincinnati     CLEAR     59  55  87 S7        29.69F
6HR MIN TEMP:  59; 6HR MAX TEMP:  70;

Columbus       CLEAR     57  53  86 CALM      29.74S
Detroit        MOCLDY    55  51  86 E5        29.74S
6HR MIN TEMP:  55; 6HR MAX TEMP:  64;

Chicago O`Hare CLOUDY    68  53  58 S10       29.53F
6HR MIN TEMP:  66; 6HR MAX TEMP:  76;

Minneapolis    CLOUDY    47  44  90 NE16G23   29.52S
6HR MIN TEMP:  47; 6HR MAX TEMP:  55; 6HR PCP:  0.29;

Indianapolis   PTCLDY    63  55  75 SE8       29.66R
6HR MIN TEMP:  63; 6HR MAX TEMP:  72;

Toronto Canada MOCLDY    50  46  87 E7        29.83S

$$




USA.gov is the U.S. government's official web portal to all federal, state and local government web resources and services.